owner,sensor,date,latitude,longitude,air_temperature,qcFlag 
LUMCON,ioos:station:LUMCON:101:1,2011-11-01T00:00:00Z,29.2533,-90.6633,18.4,11111222 
LUMCON,ioos:station:LUMCON:101:1,2011-11-01T14:00:00Z,29.2533,-90.6633,16.7,1111122 
LUMCON,ioos:station:LUMCON:101:1,2011-11-01T15:00:00Z,29.2533,-90.6633,18.6,11111222 
LUMCON,ioos:station:LUMCON:101:1,2011-11-01T16:00:00Z,29.2533,-90.6633,20.1,11111222 
LUMCON,ioos:station:LUMCON:101:1,2011-11-01T17:00:00Z,29.2533,-90.6633,21.1,11111222 
LUMCON,ioos:station:LUMCON:101:1,2011-11-01T18:00:00Z,29.2533,-90.6633,21.7,11111222 
LUMCON,ioos:station:LUMCON:101:1,2011-11-01T19:00:00Z,29.2533,-90.6633,22.3,11111222 
LUMCON,ioos:station:LUMCON:101:1,2011-11-01T20:00:00Z,29.2533,-90.6633,22.6,11111222 
LUMCON,ioos:station:LUMCON:101:1,2011-11-01T21:00:00Z,29.2533,-90.6633,22.9,11111222 
LUMCON,ioos:station:LUMCON:101:1,2011-11-01T22:00:00Z,29.2533,-90.6633,22.7,11111222 
LUMCON,ioos:station:LUMCON:101:1,2011-11-01T23:00:00Z,29.2533,-90.6633,21.5,11111222 
LUMCON,ioos:station:LUMCON:101:1,2011-11-02T00:00:00Z,29.2533,-90.6633,20.6,1111122 
LUMCON,ioos:station:LUMCON:101:1,2011-11-02T01:00:00Z,29.2533,-90.6633,20.1,1111122 
LUMCON,ioos:station:LUMCON:101:1,2011-11-02T02:00:00Z,29.2533,-90.6633,19.7,1111122 
LUMCON,ioos:station:LUMCON:101:1,2011-11-02T03:00:00Z,29.2533,-90.6633,19.3,1111122 
LUMCON,ioos:station:LUMCON:101:1,2011-11-02T04:00:00Z,29.2533,-90.6633,19.2,1111122 
LUMCON,ioos:station:LUMCON:101:1,2011-11-02T05:00:00Z,29.2533,-90.6633,19.2,1111122 
LUMCON,ioos:station:LUMCON:101:1,2011-11-02T06:00:00Z,29.2533,-90.6633,19.2,1111122 
LUMCON,ioos:station:LUMCON:101:1,2011-11-02T07:00:00Z,29.2533,-90.6633,18.9,1111122 
LUMCON,ioos:station:LUMCON:101:1,2011-11-02T08:00:00Z,29.2533,-90.6633,18.9,1111122 
LUMCON,ioos:station:LUMCON:101:1,2011-11-02T09:00:00Z,29.2533,-90.6633,19.3,1111122 
LUMCON,ioos:station:LUMCON:101:1,2011-11-02T10:00:00Z,29.2533,-90.6633,19.7,1111122 
LUMCON,ioos:station:LUMCON:101:1,2011-11-02T11:00:00Z,29.2533,-90.6633,19.8,1111122 
LUMCON,ioos:station:LUMCON:101:1,2011-11-02T12:00:00Z,29.2533,-90.6633,20.0,1111122 
LUMCON,ioos:station:LUMCON:101:1,2011-11-02T13:00:00Z,29.2533,-90.6633,20.3,1111122 
LUMCON,ioos:station:LUMCON:101:1,2011-11-02T14:00:00Z,29.2533,-90.6633,21.2,1111122 
LUMCON,ioos:station:LUMCON:101:1,2011-11-02T15:00:00Z,29.2533,-90.6633,22.1,1111122 
LUMCON,ioos:station:LUMCON:101:1,2011-11-02T16:00:00Z,29.2533,-90.6633,22.6,1111122 
LUMCON,ioos:station:LUMCON:101:1,2011-11-02T17:00:00Z,29.2533,-90.6633,23.0,1111122 
LUMCON,ioos:station:LUMCON:101:1,2011-11-02T18:00:00Z,29.2533,-90.6633,23.4,1111122 
LUMCON,ioos:station:LUMCON:101:1,2011-11-02T19:00:00Z,29.2533,-90.6633,23.8,1111122 
LUMCON,ioos:station:LUMCON:101:1,2011-11-02T20:00:00Z,29.2533,-90.6633,24.0,1111122 
LUMCON,ioos:station:LUMCON:101:1,2011-11-02T21:00:00Z,29.2533,-90.6633,23.6,1111122 
LUMCON,ioos:station:LUMCON:101:1,2011-11-02T22:00:00Z,29.2533,-90.6633,23.1,1111122 
LUMCON,ioos:station:LUMCON:101:1,2011-11-02T23:00:00Z,29.2533,-90.6633,22.1,1111122 
LUMCON,ioos:station:LUMCON:101:1,2011-11-03T00:00:00Z,29.2533,-90.6633,21.5,1111122 
LUMCON,ioos:station:LUMCON:101:1,2011-11-03T01:00:00Z,29.2533,-90.6633,21.4,1111122 
LUMCON,ioos:station:LUMCON:101:1,2011-11-03T02:00:00Z,29.2533,-90.6633,21.2,1111122 
LUMCON,ioos:station:LUMCON:101:1,2011-11-03T03:00:00Z,29.2533,-90.6633,20.9,1111122 
LUMCON,ioos:station:LUMCON:101:1,2011-11-03T04:00:00Z,29.2533,-90.6633,21.2,1111122 
LUMCON,ioos:station:LUMCON:101:1,2011-11-03T05:00:00Z,29.2533,-90.6633,21.2,1111122 
LUMCON,ioos:station:LUMCON:101:1,2011-11-03T06:00:00Z,29.2533,-90.6633,21.4,1111122 
LUMCON,ioos:station:LUMCON:101:1,2011-11-03T07:00:00Z,29.2533,-90.6633,21.5,1111122 
LUMCON,ioos:station:LUMCON:101:1,2011-11-03T08:00:00Z,29.2533,-90.6633,21.8,1111122 
LUMCON,ioos:station:LUMCON:101:1,2011-11-03T09:00:00Z,29.2533,-90.6633,21.5,1111122 
LUMCON,ioos:station:LUMCON:101:1,2011-11-03T10:00:00Z,29.2533,-90.6633,21.4,1111122 
LUMCON,ioos:station:LUMCON:101:1,2011-11-03T11:00:00Z,29.2533,-90.6633,21.5,1111122 
LUMCON,ioos:station:LUMCON:101:1,2011-11-03T12:00:00Z,29.2533,-90.6633,21.9,1111122 
LUMCON,ioos:station:LUMCON:101:1,2011-11-03T13:00:00Z,29.2533,-90.6633,21.8,1111122 
LUMCON,ioos:station:LUMCON:101:1,2011-11-03T14:00:00Z,29.2533,-90.6633,23.8,1111122 
LUMCON,ioos:station:LUMCON:101:1,2011-11-03T15:00:00Z,29.2533,-90.6633,7.2,1111122 
LUMCON,ioos:station:LUMCON:101:1,2011-11-03T16:00:00Z,29.2533,-90.6633,20.9,1111122 
LUMCON,ioos:station:LUMCON:101:1,2011-11-03T17:00:00Z,29.2533,-90.6633,18.1,1111122 
LUMCON,ioos:station:LUMCON:101:1,2011-11-03T18:00:00Z,29.2533,-90.6633,17.0,1111122 
LUMCON,ioos:station:LUMCON:101:1,2011-11-03T19:00:00Z,29.2533,-90.6633,14.5,11111222 
LUMCON,ioos:station:LUMCON:101:1,2011-11-03T20:00:00Z,29.2533,-90.6633,16.0,1111122 
LUMCON,ioos:station:LUMCON:101:1,2011-11-03T21:00:00Z,29.2533,-90.6633,17.0,1111122 
LUMCON,ioos:station:LUMCON:101:1,2011-11-03T22:00:00Z,29.2533,-90.6633,17.9,1111122 
LUMCON,ioos:station:LUMCON:101:1,2011-11-03T23:00:00Z,29.2533,-90.6633,17.4,1111122 
LUMCON,ioos:station:LUMCON:101:1,2011-11-04T00:00:00Z,29.2533,-90.6633,15.9,1111122 
LUMCON,ioos:station:LUMCON:101:1,2011-11-04T01:00:00Z,29.2533,-90.6633,15.1,1111122 
LUMCON,ioos:station:LUMCON:101:1,2011-11-04T02:00:00Z,29.2533,-90.6633,14.6,11111222 
LUMCON,ioos:station:LUMCON:101:1,2011-11-04T03:00:00Z,29.2533,-90.6633,14.0,11111222 
LUMCON,ioos:station:LUMCON:101:1,2011-11-04T04:00:00Z,29.2533,-90.6633,13.7,11111222 
LUMCON,ioos:station:LUMCON:101:1,2011-11-04T05:00:00Z,29.2533,-90.6633,13.0,11111222 
LUMCON,ioos:station:LUMCON:101:1,2011-11-04T06:00:00Z,29.2533,-90.6633,12.2,11111222 
LUMCON,ioos:station:LUMCON:101:1,2011-11-04T07:00:00Z,29.2533,-90.6633,12.0,11111222 
LUMCON,ioos:station:LUMCON:101:1,2011-11-04T08:00:00Z,29.2533,-90.6633,11.6,11111222 
LUMCON,ioos:station:LUMCON:101:1,2011-11-04T09:00:00Z,29.2533,-90.6633,11.1,11111222 
LUMCON,ioos:station:LUMCON:101:1,2011-11-04T10:00:00Z,29.2533,-90.6633,10.6,11111222 
LUMCON,ioos:station:LUMCON:101:1,2011-11-04T11:00:00Z,29.2533,-90.6633,10.2,11111222 
LUMCON,ioos:station:LUMCON:101:1,2011-11-04T12:00:00Z,29.2533,-90.6633,9.6,11111222 
LUMCON,ioos:station:LUMCON:101:1,2011-11-04T13:00:00Z,29.2533,-90.6633,10.0,11111222 
LUMCON,ioos:station:LUMCON:101:1,2011-11-04T14:00:00Z,29.2533,-90.6633,10.9,11111222 
LUMCON,ioos:station:LUMCON:101:1,2011-11-04T15:00:00Z,29.2533,-90.6633,11.7,11111222 
LUMCON,ioos:station:LUMCON:101:1,2011-11-04T18:00:00Z,29.2533,-90.6633,15.0,1111122 
LUMCON,ioos:station:LUMCON:101:1,2011-11-04T19:00:00Z,29.2533,-90.6633,15.9,1111122 
LUMCON,ioos:station:LUMCON:101:1,2011-11-04T20:00:00Z,29.2533,-90.6633,17.1,1111122 
LUMCON,ioos:station:LUMCON:101:1,2011-11-04T21:00:00Z,29.2533,-90.6633,18.0,1111122 
LUMCON,ioos:station:LUMCON:101:1,2011-11-04T22:00:00Z,29.2533,-90.6633,18.4,1111122 
LUMCON,ioos:station:LUMCON:101:1,2011-11-04T23:00:00Z,29.2533,-90.6633,18.0,1111122 
LUMCON,ioos:station:LUMCON:101:1,2011-11-05T00:00:00Z,29.2533,-90.6633,16.3,1111122 
LUMCON,ioos:station:LUMCON:101:1,2011-11-05T01:00:00Z,29.2533,-90.6633,15.2,1111122 
LUMCON,ioos:station:LUMCON:101:1,2011-11-05T02:00:00Z,29.2533,-90.6633,14.9,1111122 
LUMCON,ioos:station:LUMCON:101:1,2011-11-05T03:00:00Z,29.2533,-90.6633,15.0,1111122 
LUMCON,ioos:station:LUMCON:101:1,2011-11-05T16:00:00Z,29.2533,-90.6633,16.3,1111122 
LUMCON,ioos:station:LUMCON:101:1,2011-11-05T17:00:00Z,29.2533,-90.6633,18.1,1111122 
LUMCON,ioos:station:LUMCON:101:1,2011-11-05T18:00:00Z,29.2533,-90.6633,19.5,1111122 
LUMCON,ioos:station:LUMCON:101:1,2011-11-05T19:00:00Z,29.2533,-90.6633,20.5,1111122 
LUMCON,ioos:station:LUMCON:101:1,2011-11-05T20:00:00Z,29.2533,-90.6633,20.9,1111122 
LUMCON,ioos:station:LUMCON:101:1,2011-11-05T21:00:00Z,29.2533,-90.6633,21.6,1111122 
LUMCON,ioos:station:LUMCON:101:1,2011-11-05T22:00:00Z,29.2533,-90.6633,20.7,1111122 
LUMCON,ioos:station:LUMCON:101:1,2011-11-05T23:00:00Z,29.2533,-90.6633,19.7,1111122 
LUMCON,ioos:station:LUMCON:101:1,2011-11-06T00:00:00Z,29.2533,-90.6633,19.3,1111122 
LUMCON,ioos:station:LUMCON:101:1,2011-11-06T01:00:00Z,29.2533,-90.6633,19.0,1111122 
LUMCON,ioos:station:LUMCON:101:1,2011-11-06T02:00:00Z,29.2533,-90.6633,19.0,1111122 
LUMCON,ioos:station:LUMCON:101:1,2011-11-06T03:00:00Z,29.2533,-90.6633,18.7,1111122 
LUMCON,ioos:station:LUMCON:101:1,2011-11-06T04:00:00Z,29.2533,-90.6633,18.5,1111122 
LUMCON,ioos:station:LUMCON:101:1,2011-11-06T05:00:00Z,29.2533,-90.6633,18.4,1111122 
LUMCON,ioos:station:LUMCON:101:1,2011-11-06T06:00:00Z,29.2533,-90.6633,17.9,1111122 
LUMCON,ioos:station:LUMCON:101:1,2011-11-06T07:00:00Z,29.2533,-90.6633,18.1,1111122 
LUMCON,ioos:station:LUMCON:101:1,2011-11-06T08:00:00Z,29.2533,-90.6633,18.4,1111122 
LUMCON,ioos:station:LUMCON:101:1,2011-11-06T09:00:00Z,29.2533,-90.6633,19.3,1111122 
LUMCON,ioos:station:LUMCON:101:1,2011-11-06T10:00:00Z,29.2533,-90.6633,19.1,1111122 
LUMCON,ioos:station:LUMCON:101:1,2011-11-06T11:00:00Z,29.2533,-90.6633,18.9,1111122 
LUMCON,ioos:station:LUMCON:101:1,2011-11-06T12:00:00Z,29.2533,-90.6633,18.9,1111122 
LUMCON,ioos:station:LUMCON:101:1,2011-11-06T13:00:00Z,29.2533,-90.6633,18.9,11111222 
LUMCON,ioos:station:LUMCON:101:1,2011-11-06T14:00:00Z,29.2533,-90.6633,19.5,11111222 
LUMCON,ioos:station:LUMCON:101:1,2011-11-06T15:00:00Z,29.2533,-90.6633,21.1,11111222 
LUMCON,ioos:station:LUMCON:101:1,2011-11-06T16:00:00Z,29.2533,-90.6633,21.0,11111222 
LUMCON,ioos:station:LUMCON:101:1,2011-11-06T17:00:00Z,29.2533,-90.6633,21.7,11111222 
LUMCON,ioos:station:LUMCON:101:1,2011-11-06T18:00:00Z,29.2533,-90.6633,22.8,11111222 
LUMCON,ioos:station:LUMCON:101:1,2011-11-06T19:00:00Z,29.2533,-90.6633,23.5,11111222 
LUMCON,ioos:station:LUMCON:101:1,2011-11-06T20:00:00Z,29.2533,-90.6633,23.4,11111222 
LUMCON,ioos:station:LUMCON:101:1,2011-11-06T21:00:00Z,29.2533,-90.6633,23.3,11111222 
LUMCON,ioos:station:LUMCON:101:1,2011-11-06T22:00:00Z,29.2533,-90.6633,21.9,11111222 
LUMCON,ioos:station:LUMCON:101:1,2011-11-06T23:00:00Z,29.2533,-90.6633,21.0,11111222 
LUMCON,ioos:station:LUMCON:101:1,2011-11-07T00:00:00Z,29.2533,-90.6633,20.5,11111222 
LUMCON,ioos:station:LUMCON:101:1,2011-11-07T01:00:00Z,29.2533,-90.6633,20.2,1111122 
LUMCON,ioos:station:LUMCON:101:1,2011-11-07T02:00:00Z,29.2533,-90.6633,20.2,1111122 
LUMCON,ioos:station:LUMCON:101:1,2011-11-07T03:00:00Z,29.2533,-90.6633,20.4,1111122 
LUMCON,ioos:station:LUMCON:101:1,2011-11-07T04:00:00Z,29.2533,-90.6633,20.0,1111122 
LUMCON,ioos:station:LUMCON:101:1,2011-11-07T05:00:00Z,29.2533,-90.6633,20.2,1111122 
LUMCON,ioos:station:LUMCON:101:1,2011-11-07T06:00:00Z,29.2533,-90.6633,20.3,1111122 
LUMCON,ioos:station:LUMCON:101:1,2011-11-07T07:00:00Z,29.2533,-90.6633,19.9,1111122 
LUMCON,ioos:station:LUMCON:101:1,2011-11-07T08:00:00Z,29.2533,-90.6633,20.1,1111122 
LUMCON,ioos:station:LUMCON:101:1,2011-11-07T09:00:00Z,29.2533,-90.6633,20.1,1111122 
LUMCON,ioos:station:LUMCON:101:1,2011-11-07T10:00:00Z,29.2533,-90.6633,20.3,1111122 
LUMCON,ioos:station:LUMCON:101:1,2011-11-07T11:00:00Z,29.2533,-90.6633,20.4,1111122 
LUMCON,ioos:station:LUMCON:101:1,2011-11-07T12:00:00Z,29.2533,-90.6633,20.4,1111122 
LUMCON,ioos:station:LUMCON:101:1,2011-11-07T13:00:00Z,29.2533,-90.6633,20.4,1111122 
LUMCON,ioos:station:LUMCON:101:1,2011-11-07T14:00:00Z,29.2533,-90.6633,21.4,1111122 
LUMCON,ioos:station:LUMCON:101:1,2011-11-07T15:00:00Z,29.2533,-90.6633,22.5,1111122 
LUMCON,ioos:station:LUMCON:101:1,2011-11-07T16:00:00Z,29.2533,-90.6633,23.4,1111122 
LUMCON,ioos:station:LUMCON:101:1,2011-11-07T17:00:00Z,29.2533,-90.6633,23.7,1111122 
LUMCON,ioos:station:LUMCON:101:1,2011-11-07T18:00:00Z,29.2533,-90.6633,24.2,1111122 
LUMCON,ioos:station:LUMCON:101:1,2011-11-07T19:00:00Z,29.2533,-90.6633,24.2,1111122 
LUMCON,ioos:station:LUMCON:101:1,2011-11-07T20:00:00Z,29.2533,-90.6633,24.4,1111122 
LUMCON,ioos:station:LUMCON:101:1,2011-11-07T21:00:00Z,29.2533,-90.6633,24.1,1111122 
LUMCON,ioos:station:LUMCON:101:1,2011-11-07T22:00:00Z,29.2533,-90.6633,23.8,1111122 
LUMCON,ioos:station:LUMCON:101:1,2011-11-07T23:00:00Z,29.2533,-90.6633,22.7,1111122 
LUMCON,ioos:station:LUMCON:101:1,2011-11-08T00:00:00Z,29.2533,-90.6633,22.0,1111122 
LUMCON,ioos:station:LUMCON:101:1,2011-11-08T01:00:00Z,29.2533,-90.6633,21.6,1111122 
LUMCON,ioos:station:LUMCON:101:1,2011-11-08T02:00:00Z,29.2533,-90.6633,21.3,1111122 
LUMCON,ioos:station:LUMCON:101:1,2011-11-08T03:00:00Z,29.2533,-90.6633,21.2,1111122 
LUMCON,ioos:station:LUMCON:101:1,2011-11-08T04:00:00Z,29.2533,-90.6633,21.2,1111122 
LUMCON,ioos:station:LUMCON:101:1,2011-11-08T05:00:00Z,29.2533,-90.6633,21.4,1111122 
LUMCON,ioos:station:LUMCON:101:1,2011-11-08T06:00:00Z,29.2533,-90.6633,21.7,1111122 
LUMCON,ioos:station:LUMCON:101:1,2011-11-08T07:00:00Z,29.2533,-90.6633,21.8,1111122 
LUMCON,ioos:station:LUMCON:101:1,2011-11-08T08:00:00Z,29.2533,-90.6633,22.3,1111122 
LUMCON,ioos:station:LUMCON:101:1,2011-11-08T09:00:00Z,29.2533,-90.6633,22.5,1111122 
LUMCON,ioos:station:LUMCON:101:1,2011-11-08T10:00:00Z,29.2533,-90.6633,22.5,1111122 
LUMCON,ioos:station:LUMCON:101:1,2011-11-08T11:00:00Z,29.2533,-90.6633,22.3,1111122 
LUMCON,ioos:station:LUMCON:101:1,2011-11-08T12:00:00Z,29.2533,-90.6633,22.4,1111122 
LUMCON,ioos:station:LUMCON:101:1,2011-11-08T13:00:00Z,29.2533,-90.6633,22.4,1111122 
LUMCON,ioos:station:LUMCON:101:1,2011-11-08T14:00:00Z,29.2533,-90.6633,22.9,1111122 
LUMCON,ioos:station:LUMCON:101:1,2011-11-08T15:00:00Z,29.2533,-90.6633,23.6,1111122 
LUMCON,ioos:station:LUMCON:101:1,2011-11-08T16:00:00Z,29.2533,-90.6633,24.3,1111122 
LUMCON,ioos:station:LUMCON:101:1,2011-11-08T17:00:00Z,29.2533,-90.6633,25.1,1111122 
LUMCON,ioos:station:LUMCON:101:1,2011-11-08T18:00:00Z,29.2533,-90.6633,24.8,1111122 
LUMCON,ioos:station:LUMCON:101:1,2011-11-08T19:00:00Z,29.2533,-90.6633,24.9,1111122 
LUMCON,ioos:station:LUMCON:101:1,2011-11-08T20:00:00Z,29.2533,-90.6633,25.1,1111122 
LUMCON,ioos:station:LUMCON:101:1,2011-11-08T21:00:00Z,29.2533,-90.6633,25.0,1111122 
LUMCON,ioos:station:LUMCON:101:1,2011-11-08T22:00:00Z,29.2533,-90.6633,24.5,1111122 
LUMCON,ioos:station:LUMCON:101:1,2011-11-08T23:00:00Z,29.2533,-90.6633,23.6,1111122 
LUMCON,ioos:station:LUMCON:101:1,2011-11-09T00:00:00Z,29.2533,-90.6633,23.2,1111122 
LUMCON,ioos:station:LUMCON:101:1,2011-11-09T01:00:00Z,29.2533,-90.6633,23.0,1111122 
LUMCON,ioos:station:LUMCON:101:1,2011-11-09T02:00:00Z,29.2533,-90.6633,22.8,1111122 
LUMCON,ioos:station:LUMCON:101:1,2011-11-09T03:00:00Z,29.2533,-90.6633,22.7,1111122 
LUMCON,ioos:station:LUMCON:101:1,2011-11-09T04:00:00Z,29.2533,-90.6633,22.8,1111122 
LUMCON,ioos:station:LUMCON:101:1,2011-11-09T06:00:00Z,29.2533,-90.6633,22.6,1111122 
LUMCON,ioos:station:LUMCON:101:1,2011-11-09T07:00:00Z,29.2533,-90.6633,22.7,1111122 
LUMCON,ioos:station:LUMCON:101:1,2011-11-09T08:00:00Z,29.2533,-90.6633,22.8,1111122 
LUMCON,ioos:station:LUMCON:101:1,2011-11-09T09:00:00Z,29.2533,-90.6633,23.0,1111122 
LUMCON,ioos:station:LUMCON:101:1,2011-11-09T10:00:00Z,29.2533,-90.6633,22.8,1111122 
LUMCON,ioos:station:LUMCON:101:1,2011-11-09T11:00:00Z,29.2533,-90.6633,22.7,1111122 
LUMCON,ioos:station:LUMCON:101:1,2011-11-09T12:00:00Z,29.2533,-90.6633,21.3,1111122 
LUMCON,ioos:station:LUMCON:101:1,2011-11-09T13:00:00Z,29.2533,-90.6633,21.9,1111122 
LUMCON,ioos:station:LUMCON:101:1,2011-11-09T14:00:00Z,29.2533,-90.6633,21.9,1111122 
LUMCON,ioos:station:LUMCON:101:1,2011-11-09T15:00:00Z,29.2533,-90.6633,22.4,1111122 
LUMCON,ioos:station:LUMCON:101:1,2011-11-09T16:00:00Z,29.2533,-90.6633,22.7,1111122 
LUMCON,ioos:station:LUMCON:101:1,2011-11-09T17:00:00Z,29.2533,-90.6633,19.2,1111122 
LUMCON,ioos:station:LUMCON:101:1,2011-11-09T18:00:00Z,29.2533,-90.6633,20.0,11111222 
LUMCON,ioos:station:LUMCON:101:1,2011-11-09T19:00:00Z,29.2533,-90.6633,20.7,1111122 
LUMCON,ioos:station:LUMCON:101:1,2011-11-09T20:00:00Z,29.2533,-90.6633,21.1,1111122 
LUMCON,ioos:station:LUMCON:101:1,2011-11-09T21:00:00Z,29.2533,-90.6633,22.0,1111122 
LUMCON,ioos:station:LUMCON:101:1,2011-11-09T22:00:00Z,29.2533,-90.6633,22.3,1111122 
LUMCON,ioos:station:LUMCON:101:1,2011-11-09T23:00:00Z,29.2533,-90.6633,21.1,1111122 
LUMCON,ioos:station:LUMCON:101:1,2011-11-10T00:00:00Z,29.2533,-90.6633,19.6,1111122 
LUMCON,ioos:station:LUMCON:101:1,2011-11-10T01:00:00Z,29.2533,-90.6633,18.3,1111122 
LUMCON,ioos:station:LUMCON:101:1,2011-11-10T02:00:00Z,29.2533,-90.6633,17.4,1111122 
LUMCON,ioos:station:LUMCON:101:1,2011-11-10T03:00:00Z,29.2533,-90.6633,16.6,1111122 
LUMCON,ioos:station:LUMCON:101:1,2011-11-10T04:00:00Z,29.2533,-90.6633,15.2,1111122 
LUMCON,ioos:station:LUMCON:101:1,2011-11-10T05:00:00Z,29.2533,-90.6633,14.2,1111122 
LUMCON,ioos:station:LUMCON:101:1,2011-11-10T09:00:00Z,29.2533,-90.6633,12.7,1111122 
LUMCON,ioos:station:LUMCON:101:1,2011-11-10T10:00:00Z,29.2533,-90.6633,20.8,1111122 
LUMCON,ioos:station:LUMCON:101:1,2011-11-10T15:00:00Z,29.2533,-90.6633,13.1,1111122 
LUMCON,ioos:station:LUMCON:101:1,2011-11-10T20:00:00Z,29.2533,-90.6633,15.5,1111122 
LUMCON,ioos:station:LUMCON:101:1,2011-11-10T21:00:00Z,29.2533,-90.6633,16.1,1111122 
LUMCON,ioos:station:LUMCON:101:1,2011-11-10T22:00:00Z,29.2533,-90.6633,16.6,1111122 
LUMCON,ioos:station:LUMCON:101:1,2011-11-10T23:00:00Z,29.2533,-90.6633,16.0,1111122 
LUMCON,ioos:station:LUMCON:101:1,2011-11-11T18:00:00Z,29.2533,-90.6633,14.9,1111122 
LUMCON,ioos:station:LUMCON:101:1,2011-11-11T19:00:00Z,29.2533,-90.6633,15.0,1111122 
LUMCON,ioos:station:LUMCON:101:1,2011-11-11T20:00:00Z,29.2533,-90.6633,15.9,1111122 
LUMCON,ioos:station:LUMCON:101:1,2011-11-11T21:00:00Z,29.2533,-90.6633,16.2,1111122 
LUMCON,ioos:station:LUMCON:101:1,2011-11-11T22:00:00Z,29.2533,-90.6633,16.5,1111122 
LUMCON,ioos:station:LUMCON:101:1,2011-11-11T23:00:00Z,29.2533,-90.6633,15.4,1111122 
LUMCON,ioos:station:LUMCON:101:1,2011-11-12T11:00:00Z,29.2533,-90.6633,15.1,1111122 
LUMCON,ioos:station:LUMCON:101:1,2011-11-12T12:00:00Z,29.2533,-90.6633,17.1,1111122 
LUMCON,ioos:station:LUMCON:101:1,2011-11-12T13:00:00Z,29.2533,-90.6633,17.4,1111122 
LUMCON,ioos:station:LUMCON:101:1,2011-11-12T14:00:00Z,29.2533,-90.6633,18.7,1111122 
LUMCON,ioos:station:LUMCON:101:1,2011-11-12T15:00:00Z,29.2533,-90.6633,18.3,1111122 
LUMCON,ioos:station:LUMCON:101:1,2011-11-12T16:00:00Z,29.2533,-90.6633,19.6,1111122 
LUMCON,ioos:station:LUMCON:101:1,2011-11-12T17:00:00Z,29.2533,-90.6633,20.0,1111122 
LUMCON,ioos:station:LUMCON:101:1,2011-11-12T18:00:00Z,29.2533,-90.6633,21.0,1111122 
LUMCON,ioos:station:LUMCON:101:1,2011-11-12T19:00:00Z,29.2533,-90.6633,21.3,1111122 
LUMCON,ioos:station:LUMCON:101:1,2011-11-12T20:00:00Z,29.2533,-90.6633,20.4,1111122 
LUMCON,ioos:station:LUMCON:101:1,2011-11-12T21:00:00Z,29.2533,-90.6633,20.7,1111122 
LUMCON,ioos:station:LUMCON:101:1,2011-11-12T22:00:00Z,29.2533,-90.6633,20.3,1111122 
LUMCON,ioos:station:LUMCON:101:1,2011-11-12T23:00:00Z,29.2533,-90.6633,19.1,1111122 
LUMCON,ioos:station:LUMCON:101:1,2011-11-13T00:00:00Z,29.2533,-90.6633,18.7,1111122 
LUMCON,ioos:station:LUMCON:101:1,2011-11-13T01:00:00Z,29.2533,-90.6633,18.3,1111122 
LUMCON,ioos:station:LUMCON:101:1,2011-11-13T02:00:00Z,29.2533,-90.6633,17.6,1111122 
LUMCON,ioos:station:LUMCON:101:1,2011-11-13T03:00:00Z,29.2533,-90.6633,18.0,1111122 
LUMCON,ioos:station:LUMCON:101:1,2011-11-13T04:00:00Z,29.2533,-90.6633,19.2,1111122 
LUMCON,ioos:station:LUMCON:101:1,2011-11-13T05:00:00Z,29.2533,-90.6633,19.1,1111122 
LUMCON,ioos:station:LUMCON:101:1,2011-11-13T06:00:00Z,29.2533,-90.6633,19.3,1111122 
LUMCON,ioos:station:LUMCON:101:1,2011-11-13T07:00:00Z,29.2533,-90.6633,19.2,1111122 
LUMCON,ioos:station:LUMCON:101:1,2011-11-13T08:00:00Z,29.2533,-90.6633,18.9,1111122 
LUMCON,ioos:station:LUMCON:101:1,2011-11-13T09:00:00Z,29.2533,-90.6633,19.2,1111122 
LUMCON,ioos:station:LUMCON:101:1,2011-11-13T10:00:00Z,29.2533,-90.6633,18.8,1111122 
LUMCON,ioos:station:LUMCON:101:1,2011-11-13T11:00:00Z,29.2533,-90.6633,18.7,1111122 
LUMCON,ioos:station:LUMCON:101:1,2011-11-13T12:00:00Z,29.2533,-90.6633,19.4,1111122 
LUMCON,ioos:station:LUMCON:101:1,2011-11-13T13:00:00Z,29.2533,-90.6633,19.4,11111222 
LUMCON,ioos:station:LUMCON:101:1,2011-11-13T14:00:00Z,29.2533,-90.6633,21.7,1111122 
LUMCON,ioos:station:LUMCON:101:1,2011-11-13T15:00:00Z,29.2533,-90.6633,23.0,1111122 
LUMCON,ioos:station:LUMCON:101:1,2011-11-13T16:00:00Z,29.2533,-90.6633,23.9,1111122 
LUMCON,ioos:station:LUMCON:101:1,2011-11-13T17:00:00Z,29.2533,-90.6633,24.0,1111122 
LUMCON,ioos:station:LUMCON:101:1,2011-11-13T18:00:00Z,29.2533,-90.6633,23.9,1111122 
LUMCON,ioos:station:LUMCON:101:1,2011-11-13T19:00:00Z,29.2533,-90.6633,25.0,1111122 
LUMCON,ioos:station:LUMCON:101:1,2011-11-13T20:00:00Z,29.2533,-90.6633,24.0,1111122 
LUMCON,ioos:station:LUMCON:101:1,2011-11-13T21:00:00Z,29.2533,-90.6633,24.0,1111122 
LUMCON,ioos:station:LUMCON:101:1,2011-11-13T22:00:00Z,29.2533,-90.6633,22.9,1111122 
LUMCON,ioos:station:LUMCON:101:1,2011-11-13T23:00:00Z,29.2533,-90.6633,22.1,1111122 
LUMCON,ioos:station:LUMCON:101:1,2011-11-14T00:00:00Z,29.2533,-90.6633,21.5,1111122 
LUMCON,ioos:station:LUMCON:101:1,2011-11-14T01:00:00Z,29.2533,-90.6633,21.4,1111122 
LUMCON,ioos:station:LUMCON:101:1,2011-11-14T02:00:00Z,29.2533,-90.6633,21.2,1111122 
LUMCON,ioos:station:LUMCON:101:1,2011-11-14T03:00:00Z,29.2533,-90.6633,20.9,1111122 
LUMCON,ioos:station:LUMCON:101:1,2011-11-14T04:00:00Z,29.2533,-90.6633,20.9,1111122 
LUMCON,ioos:station:LUMCON:101:1,2011-11-14T05:00:00Z,29.2533,-90.6633,20.7,1111122 
LUMCON,ioos:station:LUMCON:101:1,2011-11-14T06:00:00Z,29.2533,-90.6633,21.1,1111122 
LUMCON,ioos:station:LUMCON:101:1,2011-11-14T07:00:00Z,29.2533,-90.6633,21.2,1111122 
LUMCON,ioos:station:LUMCON:101:1,2011-11-14T08:00:00Z,29.2533,-90.6633,21.2,1111122 
LUMCON,ioos:station:LUMCON:101:1,2011-11-14T09:00:00Z,29.2533,-90.6633,21.4,1111122 
LUMCON,ioos:station:LUMCON:101:1,2011-11-14T10:00:00Z,29.2533,-90.6633,21.2,1111122 
LUMCON,ioos:station:LUMCON:101:1,2011-11-14T11:00:00Z,29.2533,-90.6633,21.0,1111122 
LUMCON,ioos:station:LUMCON:101:1,2011-11-14T12:00:00Z,29.2533,-90.6633,21.1,1111122 
LUMCON,ioos:station:LUMCON:101:1,2011-11-14T13:00:00Z,29.2533,-90.6633,20.3,1111122 
LUMCON,ioos:station:LUMCON:101:1,2011-11-14T14:00:00Z,29.2533,-90.6633,21.6,1111122 
LUMCON,ioos:station:LUMCON:101:1,2011-11-14T15:00:00Z,29.2533,-90.6633,23.1,1111122 
LUMCON,ioos:station:LUMCON:101:1,2011-11-14T16:00:00Z,29.2533,-90.6633,22.2,1111122 
LUMCON,ioos:station:LUMCON:101:1,2011-11-14T17:00:00Z,29.2533,-90.6633,25.2,1111122 
LUMCON,ioos:station:LUMCON:101:1,2011-11-14T18:00:00Z,29.2533,-90.6633,26.1,1111122 
LUMCON,ioos:station:LUMCON:101:1,2011-11-14T19:00:00Z,29.2533,-90.6633,25.8,1111122 
LUMCON,ioos:station:LUMCON:101:1,2011-11-14T20:00:00Z,29.2533,-90.6633,25.3,1111122 
LUMCON,ioos:station:LUMCON:101:1,2011-11-14T21:00:00Z,29.2533,-90.6633,24.8,1111122 
LUMCON,ioos:station:LUMCON:101:1,2011-11-14T22:00:00Z,29.2533,-90.6633,25.1,1111122 
LUMCON,ioos:station:LUMCON:101:1,2011-11-14T23:00:00Z,29.2533,-90.6633,23.9,1111122 
LUMCON,ioos:station:LUMCON:101:1,2011-11-15T00:00:00Z,29.2533,-90.6633,22.9,1111122 
LUMCON,ioos:station:LUMCON:101:1,2011-11-15T01:00:00Z,29.2533,-90.6633,22.6,1111122 
LUMCON,ioos:station:LUMCON:101:1,2011-11-16T08:00:00Z,29.2533,-90.6633,23.3,1111122 
LUMCON,ioos:station:LUMCON:101:1,2011-11-16T09:00:00Z,29.2533,-90.6633,23.5,1111122 
LUMCON,ioos:station:LUMCON:101:1,2011-11-16T10:00:00Z,29.2533,-90.6633,23.7,1111122 
LUMCON,ioos:station:LUMCON:101:1,2011-11-16T11:00:00Z,29.2533,-90.6633,23.7,1111122 
LUMCON,ioos:station:LUMCON:101:1,2011-11-16T12:00:00Z,29.2533,-90.6633,23.6,1111122 
LUMCON,ioos:station:LUMCON:101:1,2011-11-16T13:00:00Z,29.2533,-90.6633,22.8,1111122 
LUMCON,ioos:station:LUMCON:101:1,2011-11-16T14:00:00Z,29.2533,-90.6633,23.1,1111122 
LUMCON,ioos:station:LUMCON:101:1,2011-11-16T15:00:00Z,29.2533,-90.6633,24.1,1111122 
LUMCON,ioos:station:LUMCON:101:1,2011-11-16T16:00:00Z,29.2533,-90.6633,26.0,1111122 
LUMCON,ioos:station:LUMCON:101:1,2011-11-16T17:00:00Z,29.2533,-90.6633,26.4,11111222 
LUMCON,ioos:station:LUMCON:101:1,2011-11-16T18:00:00Z,29.2533,-90.6633,26.6,11111222 